![]() |
EMODnet Physics ERDDAP
Easier access to scientific data |
log in|
Brought to you by EMODnet Physics |
| Dataset Title: | NDBC - Collection of dew point temperature (DEWT) TimeSeries - IN SITU MultiPointTimeSeriesObservation
|
| Institution: | NDBC (Dataset ID: TS_DEWT_NDBC) |
| Information: | Summary
| License
| FGDC
| ISO 19115
| Metadata
| Background
| Subset
| Data Access Form
| Make a graph
|
| Name | Last modified | Size | Description | |
|---|---|---|---|---|
| Parent Directory | - | - | ||
| MXXA2_TS_DEWT_012018.nc | 27-Oct-2024 15:27 | 429825 | ||
| MXXA2_TS_DEWT_012019.nc | 27-Oct-2024 15:27 | 429826 | ||
| MXXA2_TS_DEWT_012020.nc | 27-Oct-2024 15:27 | 429665 | ||
| MXXA2_TS_DEWT_012021.nc | 27-Oct-2024 15:27 | 429823 | ||
| MXXA2_TS_DEWT_012022.nc | 27-Oct-2024 15:27 | 429825 | ||
| MXXA2_TS_DEWT_012023.nc | 27-Oct-2024 15:27 | 429828 | ||
| MXXA2_TS_DEWT_012024.nc | 27-Oct-2024 15:27 | 429823 | ||
| MXXA2_TS_DEWT_012025.nc | 07-Feb-2025 10:29 | 429823 | ||
| MXXA2_TS_DEWT_012026.nc | 02-Feb-2026 16:46 | 429827 | ||
| MXXA2_TS_DEWT_022018.nc | 27-Oct-2024 15:27 | 429820 | ||
| MXXA2_TS_DEWT_022019.nc | 27-Oct-2024 15:27 | 429577 | ||
| MXXA2_TS_DEWT_022020.nc | 27-Oct-2024 15:27 | 1254106 | ||
| MXXA2_TS_DEWT_022021.nc | 27-Oct-2024 15:27 | 1144070 | ||
| MXXA2_TS_DEWT_022022.nc | 27-Oct-2024 15:28 | 993008 | ||
| MXXA2_TS_DEWT_022023.nc | 27-Oct-2024 15:28 | 1262781 | ||
| MXXA2_TS_DEWT_022024.nc | 16-Sep-2024 16:51 | 1024265 | ||
| MXXA2_TS_DEWT_022025.nc | 01-Mar-2025 05:25 | 876183 | ||
| MXXA2_TS_DEWT_022026.nc | 01-Mar-2026 05:22 | 450487 | ||
| MXXA2_TS_DEWT_032018.nc | 27-Oct-2024 15:28 | 451328 | ||
| MXXA2_TS_DEWT_032019.nc | 27-Oct-2024 15:28 | 444117 | ||
| MXXA2_TS_DEWT_032020.nc | 27-Oct-2024 15:28 | 451362 | ||
| MXXA2_TS_DEWT_032021.nc | 27-Oct-2024 15:28 | 450676 | ||
| MXXA2_TS_DEWT_032022.nc | 27-Oct-2024 15:28 | 450781 | ||
| MXXA2_TS_DEWT_032023.nc | 27-Oct-2024 15:28 | 451721 | ||
| MXXA2_TS_DEWT_032025.nc | 02-Apr-2025 04:00 | 440178 | ||
| MXXA2_TS_DEWT_032026.nc | 23-Mar-2026 06:27 | 442003 | ||
| MXXA2_TS_DEWT_042018.nc | 27-Oct-2024 15:28 | 1266843 | ||
| MXXA2_TS_DEWT_042019.nc | 27-Oct-2024 15:28 | 446420 | ||
| MXXA2_TS_DEWT_042020.nc | 27-Oct-2024 15:28 | 448990 | ||
| MXXA2_TS_DEWT_042021.nc | 27-Oct-2024 15:28 | 432968 | ||
| MXXA2_TS_DEWT_042022.nc | 27-Oct-2024 15:28 | 447909 | ||
| MXXA2_TS_DEWT_042023.nc | 27-Oct-2024 15:28 | 448648 | ||
| MXXA2_TS_DEWT_042025.nc | 01-May-2025 06:11 | 447783 | ||
| MXXA2_TS_DEWT_052018.nc | 27-Oct-2024 15:28 | 448062 | ||
| MXXA2_TS_DEWT_052019.nc | 27-Oct-2024 15:28 | 1107925 | ||
| MXXA2_TS_DEWT_052020.nc | 27-Oct-2024 15:28 | 451621 | ||
| MXXA2_TS_DEWT_052021.nc | 27-Oct-2024 15:29 | 452191 | ||
| MXXA2_TS_DEWT_052022.nc | 27-Oct-2024 15:29 | 441118 | ||
| MXXA2_TS_DEWT_052023.nc | 27-Oct-2024 15:29 | 449737 | ||
| MXXA2_TS_DEWT_052025.nc | 01-Jun-2025 08:27 | 451778 | ||
| MXXA2_TS_DEWT_062018.nc | 27-Oct-2024 15:29 | 432976 | ||
| MXXA2_TS_DEWT_062019.nc | 27-Oct-2024 15:29 | 440030 | ||
| MXXA2_TS_DEWT_062020.nc | 27-Oct-2024 15:29 | 1264088 | ||
| MXXA2_TS_DEWT_062021.nc | 27-Oct-2024 15:29 | 450287 | ||
| MXXA2_TS_DEWT_062022.nc | 27-Oct-2024 15:29 | 441002 | ||
| MXXA2_TS_DEWT_062023.nc | 27-Oct-2024 15:29 | 450793 | ||
| MXXA2_TS_DEWT_062025.nc | 01-Jul-2025 05:47 | 450603 | ||
| MXXA2_TS_DEWT_072018.nc | 27-Oct-2024 15:29 | 1114592 | ||
| MXXA2_TS_DEWT_072019.nc | 27-Oct-2024 15:29 | 451574 | ||
| MXXA2_TS_DEWT_072020.nc | 27-Oct-2024 15:29 | 441255 | ||
| MXXA2_TS_DEWT_072021.nc | 27-Oct-2024 15:29 | 451499 | ||
| MXXA2_TS_DEWT_072022.nc | 27-Oct-2024 15:29 | 451855 | ||
| MXXA2_TS_DEWT_072023.nc | 27-Oct-2024 15:29 | 1265976 | ||
| MXXA2_TS_DEWT_072025.nc | 01-Aug-2025 05:56 | 450242 | ||
| MXXA2_TS_DEWT_082018.nc | 27-Oct-2024 15:29 | 442994 | ||
| MXXA2_TS_DEWT_082019.nc | 27-Oct-2024 15:30 | 444635 | ||
| MXXA2_TS_DEWT_082020.nc | 27-Oct-2024 15:30 | 448982 | ||
| MXXA2_TS_DEWT_082021.nc | 27-Oct-2024 15:30 | 448925 | ||
| MXXA2_TS_DEWT_082022.nc | 27-Oct-2024 15:30 | 449656 | ||
| MXXA2_TS_DEWT_082023.nc | 27-Oct-2024 15:30 | 450102 | ||
| MXXA2_TS_DEWT_082025.nc | 01-Sep-2025 07:26 | 1109166 | ||
| MXXA2_TS_DEWT_092018.nc | 27-Oct-2024 15:30 | 450688 | ||
| MXXA2_TS_DEWT_092019.nc | 27-Oct-2024 15:30 | 449673 | ||
| MXXA2_TS_DEWT_092020.nc | 27-Oct-2024 15:30 | 442612 | ||
| MXXA2_TS_DEWT_092022.nc | 27-Oct-2024 15:30 | 450449 | ||
| MXXA2_TS_DEWT_092023.nc | 27-Oct-2024 15:30 | 433098 | ||
| MXXA2_TS_DEWT_092025.nc | 01-Oct-2025 07:44 | 1098856 | ||
| MXXA2_TS_DEWT_102018.nc | 27-Oct-2024 15:30 | 445927 | ||
| MXXA2_TS_DEWT_102019.nc | 27-Oct-2024 15:30 | 1256709 | ||
| MXXA2_TS_DEWT_102020.nc | 27-Oct-2024 15:30 | 1257848 | ||
| MXXA2_TS_DEWT_102021.nc | 27-Oct-2024 15:31 | 2894305 | ||
| MXXA2_TS_DEWT_102022.nc | 27-Oct-2024 15:31 | 450765 | ||
| MXXA2_TS_DEWT_102023.nc | 27-Oct-2024 15:31 | 450271 | ||
| MXXA2_TS_DEWT_102025.nc | 01-Nov-2025 06:38 | 438748 | ||
| MXXA2_TS_DEWT_112018.nc | 27-Oct-2024 15:31 | 419150 | ||
| MXXA2_TS_DEWT_112019.nc | 27-Oct-2024 15:31 | 449973 | ||
| MXXA2_TS_DEWT_112020.nc | 27-Oct-2024 15:31 | 449137 | ||
| MXXA2_TS_DEWT_112021.nc | 27-Oct-2024 15:31 | 448895 | ||
| MXXA2_TS_DEWT_112022.nc | 27-Oct-2024 15:31 | 424002 | ||
| MXXA2_TS_DEWT_112023.nc | 27-Oct-2024 15:31 | 1260469 | ||
| MXXA2_TS_DEWT_112024.nc | 17-Jan-2025 18:44 | 449728 | ||
| MXXA2_TS_DEWT_112025.nc | 01-Dec-2025 10:24 | 1256502 | ||
| MXXA2_TS_DEWT_122017.nc | 27-Oct-2024 15:31 | 1259154 | ||
| MXXA2_TS_DEWT_122018.nc | 27-Oct-2024 15:31 | 5507420 | ||
| MXXA2_TS_DEWT_122019.nc | 27-Oct-2024 15:31 | 434069 | ||
| MXXA2_TS_DEWT_122020.nc | 27-Oct-2024 15:31 | 449226 | ||
| MXXA2_TS_DEWT_122021.nc | 27-Oct-2024 15:31 | 447560 | ||
| MXXA2_TS_DEWT_122023.nc | 27-Oct-2024 15:31 | 450455 | ||
| MXXA2_TS_DEWT_122024.nc | 23-Jan-2025 00:09 | 450243 | ||
| MXXA2_TS_DEWT_122025.nc | 01-Jan-2026 04:48 | 449511 | ||